Portada
METAR-TAF:

METAR-TAF

Aeroports :

Block Island, Rhode Island, Estats Units d'Amèrica

latitud: 41-10N, longitud: 071-34W, altitud: 33 m

Observació

L'informe es va fer fa 7 minuts, a les 14:16 UTC
Vent 10 kt del Sud-Oest
Temperatura 17°C
Humitat 77%
Pressió 1014 hPa
Visibilitat: 16.1 km
Cel ennuvolat a una alçada de 2800 ft

METAR: KBID 241416Z AUTO 23010KT 10SM BKN028 17/13 A2994 RMK AO2

Hora: 10:23 (14:23 UTC)


TAF: manca

Observacions i pronòstics meteorològics de més de 4000 aeroports (METAR i TAF).

Les estacions disponibles són els punts grocs i vermells al mapa.

Posi el ratolí al punt desitjat per veure el nom de l'estació.

Feu clic per veure les observacions i els pronòstics meteorològics.

Per canviar el mapa: feu clic els botons verds amb una creu de color negre per apropar; al botó verd amb un guió per allunyar la imatge; o en les fletxes verdes per a mapes adjacents.


METAR-TAF: